Location: Hawks Ness
(60.2333°N, 1.1667°W)
Time: 10:48:12
(UTC+00:00)

PSLV R/B - Visible Passes

Search period start: 29 January 2020 00:00
Search period end: 08 February 2020 00:00
Orbit: 595 x 629 km, 97.9° (Epoch: 29 January)

Date Brightness Start Highest point End Pass type
(mag) Time Alt. Az. Time Alt. Az. Time Alt. Az.
29 Jan 5.5 04:13:23 10° NNE 04:15:12 24° NNE 04:15:12 24° NNE visible
29 Jan 5.0 05:49:47 10° N 05:52:11 22° NNW 05:52:11 22° NNW visible
30 Jan 6.7 02:52:54 10° NE 02:53:12 11° NE 02:53:12 11° NE visible
30 Jan 5.2 04:28:09 10° NNE 04:30:13 28° NNE 04:30:13 28° NNE visible
30 Jan 5.0 06:04:43 10° N 06:07:13 20° NW 06:07:13 20° NW visible
31 Jan 6.5 03:07:23 10° NE 03:08:14 14° NE 03:08:14 14° NE visible
31 Jan 4.9 04:42:57 10° NNE 04:45:14 30° N 04:45:14 30° N visible
31 Jan 5.1 06:19:42 10° N 06:22:14 17° NW 06:22:14 17° NW visible
01 Feb 6.2 03:21:58 10° NNE 03:23:16 17° NE 03:23:16 17° NE visible
01 Feb 4.7 04:57:46 10° N 05:00:16 32° N 05:00:16 32° N visible
01 Feb 5.3 06:34:43 10° N 06:37:08 15° NW 06:37:16 15° NW visible
02 Feb 5.9 03:36:37 10° NNE 03:38:17 21° NE 03:38:17 21° NE visible
02 Feb 4.6 05:12:36 10° N 05:15:18 32° NNW 05:15:18 32° NNW visible
02 Feb 5.4 06:49:52 10° NNW 06:51:40 12° NW 06:52:18 12° NW visible
03 Feb 5.5 03:51:17 10° NNE 03:53:19 25° NE 03:53:19 25° NE visible
03 Feb 4.6 05:27:27 10° N 05:30:20 30° NNW 05:30:20 30° NNW visible
03 Feb 5.6 07:05:22 10° NNW 07:06:12 10° NW 07:07:02 10° NW visible
04 Feb 5.1 04:06:00 10° NNE 04:08:21 31° NNE 04:08:21 31° NNE visible
04 Feb 4.7 05:42:21 10° N 05:45:21 27° NW 05:45:21 27° NW visible
05 Feb 6.6 02:45:43 10° NE 02:46:23 12° NE 02:46:23 12° NE visible
05 Feb 4.8 04:20:46 10° NNE 04:23:23 36° NNE 04:23:23 36° NNE visible
05 Feb 4.8 05:57:15 10° N 06:00:23 23° NW 06:00:23 23° NW visible
06 Feb 6.3 03:00:08 10° NE 03:01:25 16° NE 03:01:25 16° NE visible
06 Feb 4.4 04:35:33 10° NNE 04:38:25 42° N 04:38:25 42° N visible
06 Feb 5.0 06:12:12 10° N 06:15:13 19° NW 06:15:26 19° NW visible
07 Feb 6.0 03:14:39 10° NE 03:16:28 19° NE 03:16:28 19° NE visible
07 Feb 4.1 04:50:21 10° NNE 04:53:28 44° N 04:53:28 44° N visible
07 Feb 5.2 06:27:12 10° N 06:29:47 16° NW 06:30:27 15° WNW visible
